Simultaneous Nadir Overpasses (SNOs) Predictions

Prediction of SNOs between GOES-14 and AQUA Satellite Orbit:

Table of predicted SNOs for the next 14.0 days since TLE Epoch: 6/7/2019
Index Date Time (GOES-14) GOES-14 Lat,Lon AQUA Lat,Lon Distance(km) Time Diff (sec)
1 06/08/2019 08:33:08 -0.01,-104.45 0.06,-104.69 28.18 80
2 06/10/2019 08:23:36 -0.00,-104.46 -0.56,-101.73 309.42 80
3 06/10/2019 20:42:21 0.02,-104.60 -0.47,-106.95 266.73 80
4 06/12/2019 20:32:49 0.02,-104.61 0.15,-103.99 71.00 80
5 06/14/2019 20:20:37 0.02,-104.62 0.78,-101.03 408.75 80
6 06/15/2019 08:39:12 -0.05,-104.49 0.30,-106.19 192.72 80
7 06/17/2019 08:29:40 -0.05,-104.50 -0.33,-103.23 145.06 80
8 06/17/2019 20:48:25 0.07,-104.65 -0.75,-108.43 429.86 80
9 06/19/2019 08:17:28 -0.04,-104.52 -0.96,-100.27 483.06 80
10 06/19/2019 20:36:13 0.07,-104.66 -0.11,-105.47 91.91 80
11 06/21/2019 20:26:41 0.07,-104.68 0.53,-102.52 246.28 80




NCC Satellite Simultaneous Nadir Overpasses (SNOs) Prediction Service
